FW9370 Weather Reports


time (UTC)temp
C
wind
direction
speed
KPH
gust
KPH
rain 1hr
cm
rain 24hr
cm
rain mn
cm
humidity
%
barometer
mb
20260502194531 12 0 0.0 1.6 0.05 0.97 0.97 94 1011.0
20260502193030 12 5 0.0 1.6 0.08 0.97 0.97 94 1011.1
20260502191530 12 360 0.0 1.6 0.08 0.94 0.94 94 1011.0
20260502190030 12 13 0.0 1.6 0.10 0.94 0.94 94 1011.1
20260502184533 11 0 0.0 1.6 0.18 0.91 0.91 94 1011.3
20260502183030 11 0 0.0 1.6 0.23 0.86 0.86 93 1011.3
20260502181531 12 0 0.0 1.6 0.30 0.84 0.84 93 1011.5
20260502163030 12 0 0.0 1.6 0.18 0.30 0.30 90 1012.5
20260502161532 12 0 0.0 1.6 0.15 0.25 0.25 88 1012.6
20260502151537 13 0 0.0 1.6 0.08 0.08 0.08 85 1012.9
20260502123045 15 88 0.0 4.8 0.00 0.00 0.00 76 1014.5
20260502121530 15 101 1.6 4.8 0.00 0.00 0.00 76 1014.8
20260502114530 15 0 1.6 8.0 0.00 0.00 0.00 78 1015.2
20260502113036 15 70 1.6 8.0 0.00 0.00 0.00 80 1015.4
20260502111544 15 76 3.2 11.3 0.00 0.00 0.00 80 1015.6
20260502110032 15 122 1.6 9.7 0.00 0.00 0.00 83 1016.0
20260502104529 14 103 1.6 8.0 0.00 0.00 0.00 84 1016.1
20260502103030 13 75 4.8 12.9 0.00 0.00 0.00 86 1016.1
20260502101530 13 80 4.8 9.7 0.00 0.00 0.00 86 1016.2
20260502091530 12 113 6.4 12.9 0.00 0.00 0.00 90 1016.4
20260502071534 11 183 1.6 11.3 0.00 0.00 0.00 93 1016.9
20260502070032 11 113 1.6 8.0 0.00 0.00 0.00 93 1016.9
20260502064533 11 136 4.8 11.3 0.00 0.00 0.00 93 1016.8
20260502063033 11 88 1.6 9.7 0.00 0.00 0.00 93 1016.9
20260502061531 11 155 0.0 4.8 0.00 0.00 0.00 94 1017.0
20260502060032 11 0 0.0 3.2 0.00 0.00 0.00 94 1017.1
20260502054530 10 0 0.0 0.0 0.00 0.00 0.00 94 1017.2
20260502053033 10 0 0.0 0.0 0.00 0.00 0.00 94 1017.2
20260502051534 10 0 0.0 0.0 0.00 0.00 0.00 93 1017.3
20260502050030 10 0 0.0 0.0 0.00 0.00 0.00 93 1017.2
20260502044531 10 0 0.0 1.6 0.00 0.00 0.00 94 1017.3
20260502043030 10 0 0.0 3.2 0.00 0.00 0.00 93 1017.3
20260502041532 10 108 0.0 1.6 0.00 0.00 0.00 93 1017.2
20260502040030 10 0 0.0 1.6 0.00 0.00 0.00 93 1017.3
20260502034530 10 0 0.0 1.6 0.00 0.00 0.00 93 1017.4
20260502033029 10 0 0.0 0.0 0.00 0.00 0.00 93 1017.4
20260502031529 10 0 0.0 0.0 0.00 0.00 0.00 93 1017.6
20260502030030 10 0 0.0 0.0 0.00 0.00 0.00 94 1017.8
20260502024532 10 0 0.0 0.0 0.00 0.00 0.00 93 1018.0
20260502023036 10 0 0.0 0.0 0.00 0.00 0.00 93 1018.1
20260502021534 10 0 0.0 0.0 0.00 0.00 0.00 93 1018.2
20260502020033 11 0 0.0 0.0 0.00 0.00 0.00 93 1018.2
20260502014528 11 156 0.0 1.6 0.00 0.00 0.00 93 1018.5
20260502013028 11 175 0.0 1.6 0.00 0.00 0.00 93 1018.9
20260502011530 10 0 0.0 1.6 0.00 0.00 0.00 93 1018.9
20260502010030 10 0 0.0 1.6 0.00 0.00 0.00 93 1019.0
20260502004528 10 0 0.0 0.0 0.00 0.00 0.00 93 1019.2
20260502003032 10 0 0.0 0.0 0.00 0.00 0.00 93 1019.2
20260502001531 10 0 0.0 0.0 0.00 0.00 0.00 93 1019.3
20260502000030 10 0 0.0 1.6 0.00 0.00 0.00 93 1019.5
20260501234535 10 0 0.0 1.6 0.00 0.00 0.00 93 1019.6
20260501233031 10 0 0.0 0.0 0.00 0.00 0.00 93 1019.6
20260501231530 10 0 0.0 0.0 0.00 0.00 0.00 93 1019.7
20260501230030 10 233 0.0 1.6 0.00 0.00 0.00 93 1019.8
20260501224539 10 0 0.0 0.0 0.00 0.00 0.00 93 1019.9
20260501223030 10 0 0.0 0.0 0.00 0.00 0.00 93 1019.9
20260501221536 10 0 0.0 0.0 0.00 0.00 0.00 93 1020.0
20260501220030 10 0 0.0 0.0 0.00 0.00 0.00 92 1019.9
20260501214533 10 0 0.0 1.6 0.00 0.00 0.00 92 1019.8
20260501213032 10 0 0.0 1.6 0.00 0.00 0.00 92 1019.9
20260501211529 10 328 0.0 1.6 0.00 0.00 0.00 92 1019.8
20260501210030 10 0 0.0 0.0 0.00 0.00 0.00 92 1019.9
20260501204532 11 0 0.0 1.6 0.00 0.00 0.00 91 1019.9
20260501203035 11 0 0.0 1.6 0.00 0.00 0.00 91 1019.7
20260501201535 11 224 0.0 1.6 0.00 0.00 0.00 91 1019.8
20260501200031 11 0 0.0 1.6 0.00 0.00 0.00 90 1019.7